Showing default

GAOFEN 9, 40894

Orbit data source: Space-Track

GAOFEN 9, 40894 is a payload satellite owned by GGKGJ (CN) in SSO that was launched on Mon, 14 Sep 2015 UTC via a CHANG ZHENG 2D launch vehicle from the Jiuquan Satellite Launch Center, China (JSC). Payloads include a variety of satellites, spacecraft, and rockets equipped with specific instruments for various scientific and technological missions. These include communications satellites like Starlink; space stations such as the ISS; scientific satellites like the Hubble; Earth observation satellites from companies like Planet Labs, Umbra, and HawkEye 360; GPS; miniature CubeSats for education and research; and military/defense satellites.

Loading next visibility...
GAOFEN 9 details
Identifier
40894, 2015-047A
Orbit
SSO
Last TLE update7 hours ago
Origin
Flag of CNGGKGJ (CN / PRC)
ManufacturerDFH
MissionOperational Defense Imaging
Bus & MotorCAST-3000, AOCS
Mass~1,700 kg wet, ~1,200 kg dry
Launch date (UTC)
2015-09-14 (9 years ago)
Launch vehicle
CHANG ZHENG 2D
Launch site
Jiuquan Satellite Launch Center, China (JSC)
Object type
Payload
Rocket body
Debris
Shape & HBRBox + 2 Pan, 4 m
Radar Cross Section4.991 m², Large (>1 m²)

Expand to show TLE details & history

TLE from 7 hours ago
0 GAOFEN 9
1 40894U 15047A   24361.25939000  .00003049  00000-0  39648-3 0  9995
2 40894  97.7048  48.6057 0029787 101.4325 259.0236 14.81065808500510
Epoch: 2024-12-26T06:13Z
Definitive object data (Epoch: 2024-12-26T06:13:31.295Z)
Latitude-0.00007°
Longitude-140.01604°
Altitude633.024 km
Speed7.54 km/s
True Right ascension03h 14m 25s
True Declination0° 00' 00"
Sunlit
Object was in full shadow at TLE epoch
Visualization TLE readout
Latitude13.13738°
Longitude-141.55361°
Altitude627.166 km
Speed7.547 km/s
Apparent Right ascension01h 53m 38s
Apparent Declination-12° 54' 56"
Sunlit
Object is in full shadow
Visualization observer readout
Local Sidereal Time12:07:47
Azimuth311.812° NW
Elevation-54.359°
Doppler factor1
Orbital elements
Apogee altitude643.847 km
Perigee altitude602.138 km
Semi-major axis7,001.13 km
Eccentricity0.0029787
Inclination97.7048°
RAAN48.6057°
Arg. of periapsis101.4325°
True anomaly258.68875°
Mean anomaly259.0236°
Eccentric anomaly258.85615°
Mean motion3.70502 °/min
BSTAR0.00039648
Orbital period97.17 mins
Loading maneuver chart data...
Loading historical data...
Loading historical data...
Loading historical data...
Loading historical data...
Loading historical data...
Loading historical data...
Loading historical data...
Other satellites on launch #47 in the year 2015 (2015-09-14 UTC)

GAOFEN 9 Visibility forecast

Observer location: undefined°, undefined

Span
Click to sort rows by Start time (UTC) header in descending order
Start Az.
Max El. time (UTC)
Max El. Az.
Max El.
End time (UTC)
End Az.
6 mins2024-12-26 16:32:13.864Z357.776° N2024-12-26 16:34:13.864Z312.525° NW40.149°2024-12-26 16:38:13.864Z207.18° SW
7 mins2024-12-27 03:26:13.864Z167.998° S2024-12-27 03:29:13.864Z323.502° NNW44.827°2024-12-27 03:33:13.864Z347.167° N
|